DO7VLR-5 Weather Reports


Display with metric or nautical units.
time (UTC)temp
F
wind
direction
speed
MPH
gust
MPH
rain 1hr
in
rain 24hr
in
rain mn
in
humidity
%
barometer
mb
20260504230016 53 0.0 0.0 0.00 0.00 0.00 88 1012.0
20260504223016 55 0.0 0.0 0.00 0.00 0.00 87 1012.4
20260504220015 55 0.0 0.0 0.00 0.00 0.00 87 1012.6
20260504213018 56 0.0 0.0 0.00 0.00 0.00 85 1013.1
20260504210017 56 0.0 0.0 0.00 0.00 0.00 85 1013.2
20260504203017 56 0.0 0.0 0.00 0.00 0.00 85 1013.2
20260504200016 57 0.0 0.0 0.00 0.00 0.00 83 1013.5
20260504193016 57 0.0 2.0 0.00 0.00 0.00 82 1013.2
20260504190016 58 0.0 2.0 0.00 0.00 0.00 81 1013.0
20260504183016 58 0.0 2.0 0.00 0.00 0.00 78 1012.5
20260504180016 60 0 1.0 4.0 0.00 0.00 0.00 72 1012.4
20260504173017 60 248 1.0 3.0 0.00 0.00 0.00 71 1012.8
20260504050017 45 0.0 2.0 0.00 0.00 0.00 90 1013.5
20260504043016 43 0.0 0.0 0.00 0.00 0.00 92 1013.6
20260504040016 43 0.0 0.0 0.00 0.00 0.00 92 1013.5
20260504033016 43 0.0 0.0 0.00 0.00 0.00 92 1013.8
20260504030016 44 0.0 1.0 0.00 0.00 0.00 90 1014.1
20260504023016 44 0.0 1.0 0.00 0.00 0.00 90 1013.8
20260504020016 45 0.0 0.0 0.00 0.00 0.00 90 1013.8
20260504013016 45 0.0 0.0 0.00 0.00 0.00 88 1014.0
20260504010016 46 0.0 0.0 0.00 0.00 0.00 87 1014.0
20260504003016 47 0.0 1.0 0.00 0.00 0.00 88 1013.8
20260504000015 47 0.0 1.0 0.00 0.00 0.00 86 1014.1
20260503233015 48 0.0 1.0 0.00 0.00 0.00 85 1013.9